Presure
146 161 140 145 149 132 124 142 145 143 150 143 168 161 162 157 158 144 172 163 171 165 162 171 156 149 160 151 177 166 177 164 156 168 167 166 189 158 190 177 181 164 173 197 153 214 168
124 129 143 137 120 153 154 121 150 149 162 158 159 155 155 164 159 149 135 135 158 158 144 162 164 163 165 175 174 181 171 161 168 158 180 193 198 190 180 179 221 164 203 170 205 172 160
145 134 139 152 156 151 134 157 158 157 152 158 153 150 161 164 159 147 162 159 146 157 156 162 169 168 145 152 173 170 171 172 179 175 204 203 219 221 177 194 175 250 208 187 214 219 175
138 142 139 145 131 131 133 128 136 151 149 135 153 156 152 163 146 158 143 148 153 166 151 171 164 177 174 169 170 170 161 172 188 214 224 220 232 240 240 250 196 225 270 259 262 266 253
124 123 127 143 143 145 156 145 160 147 147 159 140 141 150 148 148 155 163 166 166 164 153 173 169 164 172 159 174 183 173 208 227 240 162 259 254 249 237 240 273 277 282 287 283 314 318
139 136 143 159 157 153 151 151 148 153 137 151 155 151 162 168 156 155 164 170 160 174 171 153 159 168 170 185 203 208 217 262 265 253 228 223 268 276 291 354 342 346 328 318 314 297 299
128 128 132 126 130 152 155 154 141 151 144 142 153 163 148 157 168 162 170 159 169 157 167 167 171 179 194 203 217 250 270 247 260 272 284 306 330 301 303 296 290 283 284 274 276 264 273
157 147 141 147 144 147 147 140 151 151 146 151 149 157 149 159 161 165 139 170 165 170 172 177 185 201 207 222 267 265 276 286 304 311 301 294 292 293 295 295 298 297 302 282 274 307 352
159 151 150 154 147 126 139 151 143 150 150 156 156 145 144 158 174 156 163 166 170 174 181 204 204 278 253 270 263 286 312 311 296 273 280 307 310 306 301 300 304 276 275 296 385 369 359
132 120 140 149 140 153 156 152 147 146 155 155 156 151 154 163 162 160 166 173 171 189 203 301 283 253 265 243 317 311 299 299 312 322 311 297 276 269 277 291 300 307 328 387 382 373 363
123 129 154 127 138 122 145 162 149 147 152 152 163 172 158 175 169 168 180 184 205 203 268 258 263 268 296 310 303 310 318 320 314 298 285 275 283 328 337 342 345 399 393 387 378 370 366
133 150 156 154 151 162 169 154 154 153 149 160 171 156 174 163 182 178 190 173 215 264 265 264 280 283 306 312 316 319 316 303 296 280 276 341 352 377 397 393 388 398 399 387 379 377 380
138 142 157 149 156 152 160 159 161 164 156 153 156 182 162 176 179 186 201 213 224 262 263 284 286 310 314 312 229 279 307 290 273 334 394 397 397 401 194 389 380 392 386 397 395 382 384
134 150 150 172 138 144 132 161 172 159 167 167 155 163 180 177 188 195 206 286 264 297 255 309 307 314 241 314 318 304 281 270 420 417 414 403 392 385 395 392 372 324 311 400 401 363 366
160 157 152 160 157 146 147 157 155 167 157 150 170 170 183 185 190 204 258 276 312 245 315 328 247 243 328 318 309 287 276 424 413 343 403 395 354 335 319 359 322 310 405 402 314 294 293
151 157 160 168 151 178 174 167 168 172 170 168 178 181 180 190 205 222 277 270 234 305 268 249 299 334 328 313 284 320 421 379 368 401 383 362 326 353 343 327 312 355 321 313 300 285 281
165 145 154 157 170 175 169 163 166 173 168 180 175 177 189 211 213 241 307 240 289 257 308 349 341 329 299 278 397 417 355 342 395 366 340 335 372 339 324 313 350 349 309 300 296 279 272
153 172 164 168 159 174 164 160 187 170 171 163 187 173 212 203 244 327 263 283 257 347 357 342 318 293 279 415 409 374 369 374 393 343 372 353 341 331 323 355 348 327 317 302 296 284 353
175 179 167 175 177 164 164 176 174 171 180 186 185 192 201 212 302 259 269 258 346 352 326 310 295 300 408 394 388 395 378 391 375 363 350 344 365 331 369 349 333 321 314 324 385 386 390
147 163 173 163 179 168 163 167 162 159 185 173 194 200 217 265 236 239 260 350 348 329 311 293 415 414 404 397 392 383 386 375 366 360 347 338 330 365 355 334 321 319 380 380 370 373 383
174 165 159 164 175 177 167 168 193 186 183 187 200 212 234 263 252 267 360 357 328 308 291 300 416 409 403 401 391 380 370 368 360 352 343 337 362 347 328 322 337 383 373 369 360 364 374
170 166 169 197 164 167 177 166 187 161 189 193 197 238 262 221 233 302 350 334 320 300 279 430 421 411 404 394 381 375 360 355 346 342 337 356 350 328 320 354 348 373 365 362 349 354 366
184 157 169 174 173 163 167 173 172 182 183 202 226 233 271 279 263 364 351 336 318 290 441 432 416 407 392 385 377 368 360 350 347 343 346 341 331 326 329 357 345 366 360 353 344 343 355
159 176 162 163 165 165 169 179 178 172 199 220 204 238 261 270 245 274 351 329 305 279 439 419 408 396 381 369 365 361 355 357 344 343 336 333 325 327 352 348 334 351 347 342 341 333 345
173 155 171 169 179 176 168 183 165 178 219 231 237 267 260 259 258 288 344 326 296 279 427 410 393 380 375 366 360 349 349 349 349 349 339 329 327 329 332 344 343 324 355 341 339 329 335
176 171 173 153 180 146 172 179 191 194 184 234 229 263 260 241 253 347 341 321 292 278 427 406 391 379 367 362 359 355 352 350 347 333 321 315 316 345 336 331 331 334 325 355 336 330 324
172 175 156 169 162 171 183 176 189 189 229 235 226 250 252 269 249 340 338 316 289 274 416 404 388 375 366 360 351 343 336 333 331 336 327 329 322 317 314 319 329 342 328 321 351 332 327
169 152 163 162 182 175 167 183 188 189 231 265 267 252 238 227 250 343 336 323 291 273 423 398 389 377 367 360 353 352 353 345 339 332 329 324 323 320 323 317 309 314 321 319 318 357 331
152 167 166 171 169 173 191 179 171 231 255 239 250 245 226 224 240 352 326 323 295 272 428 418 407 395 379 373 366 363 355 352 354 344 342 338 331 324 316 316 324 322 314 308 330 325 340
Wind_Speed
21 13 23 26 26 32 37 35 38 42 41 45 46 47 48 52 62 57 69 66 63 60 71 83 75 79 88 85 95 92 85 92 90 93 93 101 98 110 103 110 112 111 124 112 94 102 114
21 26 27 31 32 31 32 42 39 43 43 44 46 46 52 59 61 64 69 69 75 68 74 86 88 86 86 98 92 102 88 96 104 101 109 110 112 109 111 117 117 117 116 97 114 114 99
22 27 29 30 32 35 40 41 42 46 48 50 52 54 64 71 71 68 71 66 71 78 82 87 90 96 97 97 98 93 102 106 114 106 117 116 115 115 116 122 126 114 121 116 112 110 131
26 31 35 39 39 43 44 45 52 51 55 55 64 68 65 77 68 74 72 73 81 86 80 110 98 120 111 106 109 112 105 112 122 120 116 113 111 113 116 114 126 111 118 114 117 123 118
30 33 38 43 48 52 48 52 58 55 58 70 62 65 73 73 71 78 93 96 86 84 85 115 107 102 119 102 128 120 115 122 117 112 118 105 104 106 108 114 120 121 124 122 119 109 107
40 42 46 45 48 52 54 57 61 65 62 73 82 77 86 91 86 89 100 99 84 117 109 94 99 123 124 132 127 121 116 109 104 102 105 119 116 120 121 105 107 98 101 100 97 97 102
39 43 47 48 54 57 60 64 61 70 71 72 85 92 75 89 100 99 108 88 115 92 126 127 126 130 136 129 120 112 106 108 107 113 115 114 106 106 100 100 100 99 98 96 94 96 106
47 48 54 56 59 62 62 63 74 79 76 81 79 88 85 100 103 103 90 120 118 122 119 126 131 132 127 124 113 110 111 113 111 105 100 96 95 95 94 95 95 95 95 91 90 92 89
53 55 57 60 64 58 65 72 72 79 81 87 91 82 90 103 119 97 111 118 127 131 130 142 132 117 119 114 111 110 106 101 95 91 93 94 93 91 90 91 88 88 92 93 74 69 76
50 42 64 67 67 74 76 78 79 80 90 93 95 94 101 109 104 108 123 131 126 144 144 124 117 117 115 117 105 96 92 92 92 89 89 88 87 84 87 91 90 87 89 68 65 64 64
47 58 67 61 70 61 75 83 83 85 92 94 106 112 106 125 124 128 137 142 154 148 131 127 123 119 112 103 99 95 93 92 89 85 85 89 90 93 91 89 86 63 61 59 56 57 57
57 67 69 70 73 81 85 84 89 91 91 102 115 101 122 116 141 139 150 110 149 134 127 127 121 115 105 101 98 94 89 88 88 87 90 93 89 80 67 62 59 56 51 48 50 50 56
62 67 74 74 79 81 88 92 96 102 100 96 103 127 109 132 142 147 162 164 141 132 130 122 116 107 102 97 98 90 84 84 87 86 74 65 62 60 36 54 53 48 49 44 44 46 43
64 73 77 84 75 82 68 97 107 103 113 114 106 108 133 128 149 155 160 138 138 125 125 112 109 103 104 92 85 84 86 88 70 64 57 51 51 51 47 46 44 53 48 44 37 34 36
77 78 80 87 89 86 87 97 97 114 108 99 120 120 141 143 152 158 162 143 122 132 112 104 106 107 89 87 85 87 89 64 60 65 51 49 53 53 48 41 46 49 36 36 31 37 38
73 82 86 95 86 107 106 103 112 121 117 116 132 139 133 153 163 176 149 133 138 115 113 112 101 88 85 85 89 83 62 61 59 52 51 49 51 44 42 41 41 32 38 36 33 35 37
83 78 86 91 99 101 104 102 115 124 115 131 126 128 147 174 169 167 125 141 120 120 104 89 86 85 88 91 68 61 64 60 52 54 53 50 41 39 39 40 34 31 34 39 35 36 38
78 93 91 97 94 109 103 102 125 118 115 101 143 110 171 158 177 115 138 125 126 91 84 85 87 90 92 63 61 61 59 55 47 51 42 42 41 36 35 30 29 31 33 35 37 35 29
91 97 97 103 109 103 106 120 122 113 135 146 143 149 156 163 136 135 135 131 90 85 88 91 92 89 62 61 59 55 53 45 42 41 40 38 34 36 29 27 27 29 32 29 19 21 22
81 95 103 97 111 107 107 109 100 98 145 115 157 161 174 159 150 145 136 89 85 87 91 93 62 59 58 57 53 50 43 40 38 36 36 35 34 29 28 24 25 24 20 16 17 19 20
97 96 95 97 113 118 110 117 142 149 141 153 169 172 160 156 146 136 90 83 88 91 94 95 57 55 54 48 44 41 39 37 34 33 33 31 27 25 25 24 22 16 18 15 15 16 19
97 96 101 116 102 110 133 115 152 107 149 161 155 167 149 148 145 116 90 89 90 93 96 53 52 50 46 42 39 36 36 35 36 34 33 28 26 23 24 19 18 13 14 14 15 16 18
100 90 100 110 119 104 115 130 126 145 137 174 174 153 140 135 135 89 87 88 91 94 52 49 47 45 44 41 38 35 34 32 31 31 29 26 26 24 22 15 15 10 11 13 14 17 19
89 108 97 103 114 118 121 143 138 123 169 168 130 154 136 133 131 119 87 88 92 95 48 48 46 44 43 41 38 35 32 28 28 26 26 24 24 25 20 14 12 11 12 14 16 18 21
104 90 114 117 134 132 116 145 111 132 169 163 154 139 136 130 130 111 90 89 92 97 50 48 46 44 40 39 37 35 30 26 22 21 20 21 21 21 21 16 12 12 10 14 17 21 23
109 109 119 93 135 83 127 141 159 164 138 149 150 134 127 128 123 92 89 88 93 98 50 48 45 43 41 38 35 35 33 29 25 16 18 20 21 16 16 17 14 12 13 11 18 22 26
108 117 92 125 106 128 147 136 160 140 154 149 144 129 125 119 120 92 87 88 93 99 54 50 50 48 44 41 37 33 32 31 29 27 27 24 18 18 17 16 16 13 13 16 14 22 28
104 83 114 106 149 132 116 151 147 145 148 128 119 123 122 121 121 90 89 88 91 97 52 55 50 46 44 40 37 33 30 28 27 24 22 23 24 22 18 15 16 16 15 17 19 17 27
79 124 119 131 125 131 153 130 119 140 127 132 119 118 118 122 120 88 90 87 90 94 54 49 47 43 42 40 38 37 34 32 32 30 27 22 20 19 23 22 20 17 18 20 19 21 23
Wind_Direction
338 345 315 321 315 314 313 309 309 308 309 304 328 321 315 317 316 299 329 320 328 320 317 328 302 295 311 301 323 307 313 298 285 286 275 273 292 280 290 279 282 280 269 274 288 275 270
315 319 316 313 312 311 316 312 311 311 320 313 319 319 323 326 318 305 297 299 325 319 300 320 317 312 313 322 315 321 296 292 303 286 297 298 299 289 282 275 287 284 271 283 269 270 286
317 315 313 319 321 315 302 316 319 320 314 319 321 319 326 329 325 310 323 323 303 319 315 317 324 317 291 290 314 303 303 300 303 294 301 299 291 288 275 275 275 275 278 279 273 270 274
315 318 319 319 306 312 313 307 313 314 317 312 323 324 323 327 314 318 303 303 313 321 296 328 316 326 322 314 312 307 292 296 306 300 294 291 287 282 278 277 279 275 275 270 269 267 263
306 304 310 318 313 311 317 313 324 309 314 327 312 314 321 316 312 320 323 324 321 318 295 330 322 311 319 297 311 304 299 305 300 295 291 287 284 282 280 279 279 280 278 276 273 276 272
322 319 316 322 320 317 313 315 314 323 315 326 326 322 324 328 329 322 323 328 310 331 326 296 308 316 312 312 313 308 306 299 297 297 296 291 290 287 284 286 286 283 281 278 277 273 270
324 319 319 321 322 320 323 324 313 326 323 321 324 323 317 327 328 325 328 320 328 316 325 321 315 315 315 312 310 308 307 309 302 296 292 291 291 286 285 283 280 279 277 274 273 269 266
321 314 313 315 314 315 316 314 326 325 319 319 320 326 320 327 325 326 302 326 325 323 318 317 317 314 313 314 314 313 305 300 297 296 294 292 289 286 285 284 283 282 279 276 273 274 272
321 321 318 320 318 318 320 322 321 319 319 322 325 318 318 324 330 320 323 322 323 320 319 320 318 317 319 314 312 305 301 299 298 297 295 293 291 290 289 286 284 282 280 280 282 273 271
320 316 316 318 318 322 322 321 319 321 323 325 325 323 323 326 324 321 323 322 318 322 323 320 321 322 317 316 305 305 305 303 300 298 297 295 293 291 289 287 284 283 284 283 279 274 268
319 321 319 319 318 312 322 317 320 324 327 327 326 327 324 329 328 325 325 325 327 323 324 325 323 319 312 310 311 310 307 306 304 304 301 298 296 293 290 289 287 287 282 280 276 272 265
316 316 318 317 319 321 320 320 323 324 324 327 327 322 328 326 330 327 329 316 328 327 326 324 319 316 314 313 312 310 309 309 307 306 304 296 294 293 293 290 288 286 280 278 273 267 262
314 314 318 317 322 322 323 322 324 326 324 322 322 329 324 331 329 330 331 329 326 328 326 321 319 316 315 313 316 312 311 310 309 302 299 299 298 296 304 292 290 285 282 275 266 264 261
313 315 318 319 320 321 314 325 325 326 327 326 321 320 331 328 330 330 329 331 330 323 324 318 319 316 320 313 314 313 313 312 306 306 304 302 297 294 294 291 287 289 284 279 270 257 256
314 319 317 317 316 320 319 323 326 329 324 321 327 327 331 331 330 331 330 331 323 327 320 317 324 321 314 314 315 315 314 310 310 303 306 304 298 294 291 287 284 283 277 269 266 261 259
317 318 319 317 317 315 320 327 328 329 328 324 330 331 330 330 331 332 332 327 329 324 328 326 321 316 316 317 318 315 313 310 310 310 305 302 295 299 296 287 280 278 276 272 265 261 260
312 316 318 319 319 320 326 328 330 330 324 330 330 330 332 329 331 331 329 330 329 330 324 319 319 320 321 320 316 314 313 312 312 306 302 301 305 299 292 288 289 280 264 269 262 259 258
316 309 319 319 322 323 327 327 326 331 327 325 330 331 329 333 328 329 332 333 331 323 323 324 324 323 322 317 316 314 313 313 313 305 307 305 304 299 295 297 284 277 269 262 263 257 239
311 311 319 317 323 326 328 331 332 328 332 330 332 333 333 331 335 334 335 334 328 329 329 328 326 325 320 318 317 318 316 316 312 309 309 307 309 305 309 296 282 276 271 265 259 253 235
314 321 322 325 323 328 325 329 323 326 332 333 333 332 331 335 335 336 336 333 333 333 332 330 325 322 320 320 322 321 320 319 316 312 311 309 308 311 309 299 285 276 286 271 257 248 231
311 324 320 322 328 331 328 330 327 332 333 330 330 331 335 338 336 336 337 338 336 335 334 333 327 324 325 328 327 324 322 320 317 314 313 313 315 310 303 298 295 293 281 271 255 243 227
319 322 322 320 326 327 333 331 331 330 332 332 333 332 337 335 337 338 340 339 337 337 335 332 331 331 332 332 330 329 326 323 320 317 317 321 318 310 305 307 296 291 274 265 248 241 222
314 317 318 321 329 328 330 330 331 332 332 332 329 335 336 338 338 342 342 341 340 339 341 339 338 338 338 338 338 336 332 327 322 319 321 321 316 314 313 321 297 297 272 253 239 233 222
317 326 324 329 331 328 329 328 331 334 331 330 336 334 339 339 340 341 346 344 343 341 348 346 345 345 343 342 340 340 337 331 327 322 320 318 316 314 327 323 295 292 265 251 234 229 220
322 320 327 329 326 327 332 327 335 334 328 331 333 338 338 341 341 344 348 346 344 345 353 352 351 348 346 346 344 341 340 337 333 329 324 318 316 314 315 322 312 278 276 249 234 227 221
323 327 327 327 325 330 331 330 329 330 335 333 332 338 340 341 342 350 349 348 349 349 358 356 354 353 353 349 346 346 347 344 339 330 325 324 320 316 308 304 297 285 263 261 238 228 223
324 328 328 327 330 329 326 330 326 332 332 333 333 338 341 344 345 352 351 353 351 351 1 359 357 357 354 354 354 350 344 341 343 341 335 333 326 315 308 301 301 299 270 253 251 230 225
324 326 325 327 322 327 332 326 327 331 331 336 340 340 342 343 348 355 356 356 354 354 6 3 359 354 355 353 351 350 351 348 346 339 336 330 326 322 317 302 289 281 272 258 247 252 231
323 324 324 324 325 325 322 330 334 334 334 334 339 340 342 346 349 359 359 358 357 356 10 6 3 359 355 351 351 351 350 347 343 341 336 331 322 314 311 308 304 290 272 259 260 246 246